Springfield, OH

7:18 PM EST on February 24, 2017 (GMT -0500)
Springfield-Beckley Municipal

Weather History for KSGH - February, 2013

Change the Weather History Date:

Monday, February 11, 2013

  Actual Average (KFFO) Record (KFFO)
Temperature  
Mean Temperature 42 °F -  
Max Temperature 47 °F 39 °F 73 °F (1999)
Min Temperature 34 °F 22 °F -7 °F (2014)
Degree Days  
Heating Degree Days 24    
Moisture  
Dew Point 33 °F    
Average Humidity 71    
Maximum Humidity 93    
Minimum Humidity 56    
Precipitation  
Precipitation 0.00 in - - ()
Sea Level Pressure  
Sea Level Pressure 29.86 in    
Wind  
Wind Speed 18 mph (WSW)    
Max Wind Speed 26 mph    
Max Gust Speed 37 mph    
Visibility 9 miles    
Events      
Averages and records for this station are not official NWS values.
T = Trace of Precipitation, MM = Missing Value Source: NWS Daily Summary

Daily Weather History Graph

Daily Weather History Graph

Search for Another Location

Airport or City:

Trip Planner

Search our weather history database for the weather conditions in past years. The results will help you decide how hot, cold, wet, or windy it might be!

Date:

Astronomy

Feb. 11, 2013 Rise Set
Actual Time 7:32 AM EST 6:07 PM EST
Civil Twilight 7:04 AM EST 6:35 PM EST
Nautical Twilight 6:32 AM EST 7:06 PM EST
Astronomical Twilight 6:01 AM EST 7:38 PM EST
Moon 7:56 AM EST (2/11) 8:02 PM EST (2/11)
Length of Visible Light 11h 30m
Length of Day
10h 34m
Waxing Crescent, 3% of the Moon is Illuminated
Feb 11
Waxing Crescent
Feb 17
First Quarter
Feb 25
Full
Mar 4
Last Quarter
Mar 11
New

Hourly Weather History & Observations

Time (EST) Temp. Windchill Dew Point Humidity Pressure Visibility Wind Dir Wind Speed Gust Speed Precip Events Conditions
12:13 AM 44.6 °F 37.2 °F 39.2 °F 81% 29.79 in 7.0 mi South 17.3 mph 25.3 mph N/A   Overcast
12:56 AM 45.0 °F 38.9 °F 41.0 °F 86% 29.81 in 5.0 mi South 12.7 mph - N/A   Overcast
1:27 AM 44.6 °F 37.8 °F 42.8 °F 93% 29.79 in 9.0 mi SSW 15.0 mph 20.7 mph N/A   Overcast
1:56 AM 45.9 °F 39.1 °F 41.9 °F 86% 29.79 in 9.0 mi South 16.1 mph 23.0 mph N/A   Overcast
2:56 AM 46.9 °F - 43.9 °F 89% 29.78 in 8.0 mi SSW 15.0 mph - N/A   Overcast
3:43 AM 46.4 °F 40.4 °F 44.6 °F 93% 29.76 in 9.0 mi SSW 13.8 mph - N/A   Mostly Cloudy
3:56 AM 46.9 °F - 43.9 °F 89% 29.77 in 9.0 mi SSW 12.7 mph - N/A   Scattered Clouds
4:56 AM 47.8 °F - 43.9 °F 86% 29.76 in 9.0 mi SSW 15.0 mph 23.0 mph N/A   Scattered Clouds
5:56 AM 47.8 °F - 43.0 °F 83% 29.77 in 10.0 mi SW 16.1 mph 24.2 mph N/A   Scattered Clouds
6:56 AM 47.8 °F - 41.0 °F 77% 29.76 in 10.0 mi WSW 24.2 mph 32.2 mph N/A   Scattered Clouds
7:56 AM 47.8 °F - 38.8 °F 71% 29.77 in 9.0 mi SW 17.3 mph 32.2 mph N/A   Mostly Cloudy
8:56 AM 46.9 °F - 34.9 °F 63% 29.80 in 9.0 mi West 24.2 mph 29.9 mph N/A   Mostly Cloudy
9:56 AM 43.9 °F 34.5 °F 31.1 °F 61% 29.82 in 9.0 mi West 25.3 mph 32.2 mph N/A   Partly Cloudy
10:56 AM 43.0 °F 34.0 °F 31.1 °F 63% 29.85 in 9.0 mi West 21.9 mph 26.5 mph N/A   Scattered Clouds
11:56 AM 41.0 °F 30.9 °F 29.1 °F 63% 29.87 in 8.0 mi WSW 24.2 mph 36.8 mph N/A   Mostly Cloudy
12:56 PM 39.9 °F 29.0 °F 27.1 °F 60% 29.88 in 9.0 mi West 26.5 mph 32.2 mph N/A   Mostly Cloudy
1:56 PM 41.0 °F 30.5 °F 27.1 °F 58% 29.88 in 9.0 mi West 26.5 mph 36.8 mph N/A   Partly Cloudy
2:56 PM 41.9 °F 32.3 °F 27.1 °F 56% 29.89 in 10.0 mi West 23.0 mph 32.2 mph N/A   Overcast
3:56 PM 41.0 °F 31.4 °F 27.1 °F 58% 29.91 in 10.0 mi West 21.9 mph 26.5 mph N/A   Overcast
4:56 PM 39.9 °F 31.1 °F 26.1 °F 58% 29.93 in 9.0 mi West 17.3 mph - N/A   Overcast
5:56 PM 37.9 °F 26.8 °F 26.1 °F 62% 29.95 in 9.0 mi West 24.2 mph 28.8 mph N/A   Mostly Cloudy
6:56 PM 36.9 °F 25.9 °F 25.2 °F 63% 29.98 in 10.0 mi West 21.9 mph 32.2 mph N/A   Mostly Cloudy
7:56 PM 36.0 °F 25.6 °F 25.2 °F 65% 29.98 in 10.0 mi West 18.4 mph - N/A   Overcast
8:56 PM 36.0 °F 25.3 °F 25.2 °F 65% 30.00 in 10.0 mi West 19.6 mph - 0.00 in   Overcast
9:56 PM 36.0 °F 26.0 °F 25.2 °F 65% 30.01 in 10.0 mi West 17.3 mph - 0.00 in   Overcast
10:56 PM 36.0 °F 25.6 °F 26.1 °F 67% 30.01 in 10.0 mi West 18.4 mph 26.5 mph N/A   Overcast
11:56 PM 34.9 °F 24.9 °F 25.2 °F 68% 30.03 in 10.0 mi West 16.1 mph - N/A   Overcast